Regional Weather Roundup
Issued by NWS Albany, NY

Home | Current Version | Previous Version | Graphics & Text | Print | Product List | Glossary Off
Versions: 1 2 3 4 5 6 7 8 9 10 11 12 13 14 15 16 17 18 19 20 21 22 23 24 25 26 27 28 29 30 31 32 33 34 35 36 37 38 39 40 41 42 43 44 45 46 47 48 49 50

000
ASUS41 KALY 011010
RWRALY

NEW YORK STATE HOURLY WEATHER ROUNDUP
NATIONAL WEATHER SERVICE ALBANY NY
600 AM EDT WED JUL 01 2015

NOTE: "FAIR" INDICATES FEW OR NO CLOUDS BELOW 12,000 FEET WITH NO
SIGNIFICANT WEATHER AND/OR NO OBSTRUCTIONS TO VISIBILITY.

NYZ032-033-038>043-046>054-057>066-NYZ062>081-011100-
EAST


CITY           SKY/WX    TMP DP  RH WIND       PRES   REMARKS
ALBANY         LGT RAIN  67  64  90 E3        29.74F
GLENS FALLS    CLOUDY    63  61  93 N3        29.75F
POUGHKEEPSIE   LGT RAIN  67  64  90 NE5       29.76F
NEWBURGH       LGT RAIN  66  66 100 CALM      29.78F
MONTGOMERY     LGT RAIN  65  64  97 CALM      29.76F FOG
WHITE PLAINS   CLOUDY    67  65  93 CALM      29.77F
ISLIP          TSTM      71  68  90 SW9       29.76S FOG
NEW YORK CITY  CLOUDY    71  65  81 CALM      29.76F
CENTRAL PARK   CLOUDY    70  66  87 CALM      29.79S
$$

NYZ005>009-017-018-044>046-055-056-011100-
CENTRAL


CITY           SKY/WX    TMP DP  RH WIND       PRES   REMARKS
FULTON         LGT RAIN  65  62  90 W10       29.71S
SYRACUSE       CLOUDY    66  63  90 S7        29.70S
ROME           CLOUDY    63  61  93 SE7       29.73F
ELMIRA         CLOUDY    64  62  93 W3        29.75F
BINGHAMTON     CLOUDY    61  60  97 SW8       29.77S FOG
MONTICELLO     CLOUDY    63  63 100 CALM      29.80F VSB 1/4
$$

NYZ026>034-041>043-011100-
NORTH


CITY           SKY/WX    TMP DP  RH WIND       PRES   REMARKS
WATERTOWN      HVY RAIN  63  62  97 CALM      29.69S VSB 3/4
FORT DRUM      NOT AVBL
MASSENA        CLOUDY    62  60  93 CALM      29.71F
SARANAC LAKE   CLOUDY    59  58  96 CALM      29.74F
PLATTSBURGH    LGT RAIN  63  61  93 CALM      29.73F
$$

NYZ001>004-010>016-019>021-011100-
WEST


CITY           SKY/WX    TMP DP  RH WIND       PRES   REMARKS
NIAGARA FALLS  CLOUDY    63  61  93 SW7       29.72S
BUFFALO        CLOUDY    63  60  90 SW7       29.74S
DUNKIRK        LGT RAIN  62  60  93 SW6       29.75S FOG
JAMESTOWN      CLOUDY    61  57  88 S6        29.80R
WELLSVILLE     PTCLDY    60  57  89 SW7       29.81S
ROCHESTER      MOCLDY    62  60  93 SW5       29.73F
PENN YAN       CLOUDY    64  61  90 SW6       29.75R
$$

             KEY
       WCI = WIND CHILL INDEX
       VSB = VISIBILITY
       HX  = HEAT INDEX
$$



USA.gov is the U.S. government's official web portal to all federal, state and local government web resources and services.